Regional Weather Roundup
Issued by NWS

Home | Current Version | Previous Version | Text Only | Print | Product List | Glossary Off
Versions: 1 2 3 4 5 6 7 8 9 10 11 12 13 14 15 16 17 18 19 20 21 22 23 24 25 26 27 28 29 30 31 32 33 34 35 36 37 38 39 40 41 42 43 44 45 46 47 48 49 50

610
ASUS43 KFSD 092010
RWRSD

WEATHER ROUNDUP FOR SOUTH DAKOTA
NATIONAL WEATHER SERVICE SIOUX FALLS SD
200 PM CST TUE FEB 09 2016

NOTE: "FAIR" INDICATES FEW OR NO CLOUDS BELOW 12,000 FEET WITH NO
SIGNIFICANT WEATHER AND/OR OBSTRUCTIONS TO VISIBILITY.


SDZ001>005-009-010-012>017-092100-
NORTHWEST AND NORTH CENTRAL SOUTH DAKOTA

CITY           SKY/WX    TMP DP  RH WIND       PRES   REMARKS
BUFFALO          N/A     47  30  51 NW24      30.08F
FAITH            N/A     37  23  56 SW7       30.14F
MOBRIDGE       MOSUNNY   35  14  42 SW12      30.16F WCI  27
$$

SDZ012>016-024>037-041>051-057-063-072>074-092100-
SOUTHWEST AND SOUTH CENTRAL SOUTH DAKOTA

CITY           SKY/WX    TMP DP  RH WIND       PRES   REMARKS
RAPID CTY ARPT CLOUDY    51  29  42 N20G33    30.14F
PIERRE         MOSUNNY   32  12  43 W12       30.21F WCI  23
CUSTER         CLOUDY    44  23  43 NW12G23   30.17F
ELLSWORTH AFB  CLOUDY    51  30  44 NW24      30.13F
PHILIP         CLOUDY    37  24  59 W6        30.17F
PINE RIDGE     CLOUDY    45  28  51 NW8       30.19F
SPEARFISH      FAIR      46  30  53 W17G23    30.17F
WINNER         FAIR      32  10  40 S7        30.21F WCI  26
$$

SDZ004>011-016>023-039-040-092100-
NORTHEAST SOUTH DAKOTA

CITY           SKY/WX    TMP DP  RH WIND       PRES   REMARKS
ABERDEEN       CLOUDY    31  11  43 VRB6      30.22F WCI  25
WATERTOWN      CLOUDY    21   8  57 NW17      30.18F WCI   7
BROOKINGS      CLOUDY    19   9  65 NW15      30.17F WCI   5
SISSETON         N/A     19   8  62 N14       30.23F WCI   6
$$

SDZ017-020-022-023-036>040-048>070-092100-
SOUTHEAST SOUTH DAKOTA

CITY           SKY/WX    TMP DP  RH WIND       PRES   REMARKS
SIOUX FALLS    PTSUNNY   20   8  60 NW15      30.20F WCI   6
HURON          CLOUDY    27  11  51 N9        30.24F WCI  18
CHAMBERLAIN    MOSUNNY   31  11  44 SW10      30.22F WCI  22
MITCHELL       CLOUDY    28  12  51 N13       30.25F WCI  17
YANKTON        MOSUNNY   27  10  50 NW21      30.25F WCI  13
$$

ABBREVIATIONS USED IN REMARKS
   TC - TEMPERATURE IN CELSIUS
  WCI - WIND CHILL INDEX
   HX - HEAT INDEX
  VSB - VISIBILITY





USA.gov is the U.S. government's official web portal to all federal, state and local government web resources and services.